This is the latest recevied weather packets stored in our database for station/object FRA001-13. If no packets are shown the sender has not sent any weather packets the latest 1 day(s).
| Time | Temp. | Humidity | Pressure | Rain* | Wind** | Luminosity | Snow |
|---|---|---|---|---|---|---|---|
| 1778187303 | 11.67° C | 91% | 1011.2 hPa | 0 mm | - | 0 W/m² | - |
| 1778187003 | 11.11° C | 92% | 1011.6 hPa | 0 mm | - | 0 W/m² | - |
| 1778186704 | 11.11° C | 91% | 1011.5 hPa | 0 mm | - | 0 W/m² | - |
| 1778186403 | 11.11° C | 91% | 1011.3 hPa | 0 mm | - | 0 W/m² | - |
| 1778186103 | 11.11° C | 91% | 1011.4 hPa | 0 mm | - | 0 W/m² | - |
| 1778185803 | 11.11° C | 91% | 1011.5 hPa | 0 mm | - | 0 W/m² | - |
| 1778185504 | 11.11° C | 90% | 1011.4 hPa | 0 mm | - | 0 W/m² | - |
| 1778185203 | 11.67° C | 90% | 1011.3 hPa | 0 mm | - | 0 W/m² | - |
| 1778184904 | 11.67° C | 88% | 1011.1 hPa | 0 mm | - | 0 W/m² | - |
| 1778184603 | 11.67° C | 88% | 1011.1 hPa | 0 mm | - | 0 W/m² | - |
| 1778184304 | 12.22° C | 87% | 1011.2 hPa | 0 mm | - | 0 W/m² | - |
| 1778184003 | 12.22° C | 87% | 1011.1 hPa | 0 mm | - | 0 W/m² | - |
| 1778183704 | 12.22° C | 86% | 1010.9 hPa | 0 mm | - | 0 W/m² | - |
| 1778183403 | 12.78° C | 86% | 1011 hPa | 0 mm | - | 0 W/m² | - |
| 1778183103 | 12.78° C | 85% | 1011 hPa | 0 mm | - | 0 W/m² | - |
| 1778182803 | 13.33° C | 85% | 1010.9 hPa | 0 mm | - | 0 W/m² | - |
| 1778182503 | 13.33° C | 84% | 1010.6 hPa | 0 mm | - | 0 W/m² | - |
| 1778182203 | 13.89° C | 83% | 1010.9 hPa | 0 mm | - | 0 W/m² | - |
| 1778181904 | 14.44° C | 81% | 1010.7 hPa | 0 mm | - | 0 W/m² | - |
| 1778181604 | 14.44° C | 79% | 1010.9 hPa | 0 mm | - | 0 W/m² | - |
| 1778181303 | 15° C | 75% | 1010.7 hPa | 0 mm | - | 0 W/m² | - |
| 1778181004 | 15.56° C | 74% | 1010.7 hPa | 0 mm | - | 1 W/m² | - |
| 1778180703 | 15.56° C | 73% | 1010.7 hPa | 0 mm | - | 2 W/m² | - |
| 1778180403 | 16.11° C | 72% | 1010.8 hPa | 0 mm | - | 4 W/m² | - |
| 1778180104 | 16.11° C | 71% | 1010.7 hPa | 0 mm | - | 6 W/m² | - |
* Rain latest hour (hover to see other rain measurements)
** Current wind speed in m/s (hover to see current wind gust speed)